H1 CPF 2 NER 2025 8 30 9 242 01 glonass129 H2 1106402 9129 37868 2025 8 30 0 0 0 2025 9 2 23 45 0 900 1 1 0 0 0 1 H9 10 0 60917 0.00000 0 1452241.481 -23588742.709 9561900.775 10 0 60917 900.00000 0 1509996.603 -24590264.585 6536607.096 10 0 60917 1800.00000 0 1437775.200 -25217222.096 3384047.560 10 0 60917 2700.00000 0 1287437.761 -25446106.193 165562.206 10 0 60917 3600.00000 0 1114265.070 -25266525.718 -3056146.927 10 0 60917 4500.00000 0 974364.370 -24681664.264 -6218249.949 10 0 60917 5400.00000 0 922036.734 -23708182.297 -9259030.917 10 0 60917 6300.00000 0 1007219.452 -22375567.023 -12119111.214 10 0 60917 7200.00000 0 1273114.381 -20724956.482 -14742628.589 10 0 60917 8100.00000 0 1754105.462 -18807487.158 -17078346.780 10 0 60917 9000.00000 0 2474056.193 -16682235.106 -19080672.231 10 0 60917 9900.00000 0 3445061.309 -14413838.238 -20710556.486 10 0 60917 10800.00000 0 4666707.216 -12069901.026 -21936265.606 10 0 60917 11700.00000 0 6125873.550 -9718292.002 -22734001.053 10 0 60917 12600.00000 0 7797084.764 -7424448.750 -23088359.885 10 0 60917 13500.00000 0 9643396.934 -5248804.154 -22992625.741 10 0 60917 14400.00000 0 11617781.992 -3244441.978 -22448885.822 10 0 60917 15300.00000 0 13664950.451 -1455079.508 -21467972.701 10 0 60917 16200.00000 0 15723535.166 86539.537 -20069233.511 10 0 60917 17100.00000 0 17728543.688 1359776.492 -18280132.403 10 0 60917 18000.00000 0 19613975.666 2356708.763 -16135695.516 10 0 60917 18900.00000 0 21315495.270 3082197.779 -13677810.669 10 0 60917 19800.00000 0 22773046.732 3553414.272 -10954396.617 10 0 60917 20700.00000 0 23933303.920 3798844.017 -8018459.176 10 0 60917 21600.00000 0 24751852.339 3856818.852 -4927053.393 10 0 60917 22500.00000 0 25195013.507 3773637.314 -1740172.508 10 0 60917 23400.00000 0 25241236.941 3601355.994 1480414.419 10 0 60917 24300.00000 0 24882003.280 3395345.966 4672353.691 10 0 60917 25200.00000 0 24122202.473 3211717.798 7773904.335 10 0 60917 26100.00000 0 22979972.765 3104723.614 10725119.117 10 0 60917 27000.00000 0 21486008.371 3124245.028 13468987.487 10 0 60917 27900.00000 0 19682365.360 3313471.753 15952519.720 10 0 60917 28800.00000 0 17620815.627 3706867.480 18127752.844 10 0 60917 29700.00000 0 15360816.886 4328507.507 19952660.625 10 0 60917 30600.00000 0 12967181.965 5190857.300 21391951.705 10 0 60917 31500.00000 0 10507542.592 6294043.098 22417741.927 10 0 60917 32400.00000 0 8049710.942 7625645.671 23010089.063 10 0 60917 33300.00000 0 5659046.264 9161027.195 23157380.317 10 0 60917 34200.00000 0 3395933.726 10864179.543 22856565.298 10 0 60917 35100.00000 0 1313478.271 12689061.105 22113229.511 10 0 60917 36000.00000 0 -544492.220 14581369.240 20941505.937 10 0 60917 36900.00000 0 -2145032.260 16480677.291 19363824.805 10 0 60917 37800.00000 0 -3467226.040 18322849.701 17410504.452 10 0 60917 38700.00000 0 -4502828.504 20042636.594 15119188.922 10 0 60917 39600.00000 0 -5256372.613 21576340.849 12534140.963 10 0 60917 40500.00000 0 -5744737.256 22864446.682 9705402.025 10 0 60917 41400.00000 0 -5996192.789 23854099.339 6687833.825 10 0 60917 42300.00000 0 -6048963.389 24501330.651 3540058.946 10 0 60917 43200.00000 0 -5949366.226 24772935.117 323320.535 10 0 60917 44100.00000 0 -5749606.027 24647915.215 -2899716.547 10 0 60917 45000.00000 0 -5505318.920 24118432.552 -6066198.911 10 0 60917 45900.00000 0 -5272970.857 23190222.307 -9114326.711 10 0 60917 46800.00000 0 -5107222.715 21882451.365 -11984578.598 10 0 60917 47700.00000 0 -5058376.090 20227024.615 -14620893.558 10 0 60917 48600.00000 0 -5170010.537 18267367.723 -16971784.539 10 0 60917 49500.00000 0 -5476914.900 16056737.493 -18991360.256 10 0 60917 50400.00000 0 -6003402.567 13656131.355 -20640233.641 10 0 60917 51300.00000 0 -6762083.759 11131884.788 -21886298.150 10 0 60917 52200.00000 0 -7753148.025 8553058.692 -22705356.186 10 0 60917 53100.00000 0 -8964187.853 5988727.514 -23081587.319 10 0 60917 54000.00000 0 -10370570.923 3505282.643 -23007847.608 10 0 60917 54900.00000 0 -11936344.834 1163864.454 -22485795.054 10 0 60917 55800.00000 0 -13615635.393 -981969.732 -21525839.857 10 0 60917 56700.00000 0 -15354478.582 -2888245.074 -20146921.847 10 0 60917 57600.00000 0 -17093008.137 -4522154.056 -18376120.855 10 0 60917 58500.00000 0 -18767905.833 -5863162.662 -16248109.090 10 0 60917 59400.00000 0 -20315010.896 -6903594.433 -13804457.605 10 0 60917 60300.00000 0 -21671978.663 -7648671.092 -11092811.572 10 0 60917 61200.00000 0 -22780876.981 -8116011.353 -8165951.542 10 0 60917 62100.00000 0 -23590611.967 -8334612.177 -5080759.778 10 0 60917 63000.00000 0 -24059082.309 -8343358.182 -1897112.333 10 0 60917 63900.00000 0 -24154973.045 -8189124.320 1323281.292 10 0 60917 64800.00000 0 -23859115.121 -7924553.417 4518068.422 10 0 60917 65700.00000 0 -23165355.321 -7605603.208 7625450.772 10 0 60917 66600.00000 0 -22080901.537 -7288966.502 10585366.742 10 0 60917 67500.00000 0 -20626130.097 -7029472.780 13340636.706 10 0 60917 68400.00000 0 -18833863.837 -6877579.787 15838050.464 10 0 60917 69300.00000 0 -16748151.136 -6877059.519 18029377.409 10 0 60917 70200.00000 0 -14422596.297 -7062974.663 19872281.576 10 0 60917 71100.00000 0 -11918309.544 -7460029.466 21331125.593 10 0 60917 72000.00000 0 -9301560.189 -8081363.574 22377649.459 10 0 60917 72900.00000 0 -6641228.264 -8927839.387 22991512.255 10 0 60917 73800.00000 0 -4006157.965 -9987853.401 23160687.082 10 0 60917 74700.00000 0 -1462520.325 -11237680.839 22881701.743 10 0 60917 75600.00000 0 928707.737 -12642341.162 22159720.172 10 0 60917 76500.00000 0 3114045.208 -14156950.813 21008461.965 10 0 60917 77400.00000 0 5049495.272 -15728509.403 19449960.068 10 0 60917 78300.00000 0 6702138.078 -17298047.369 17514159.306 10 0 60917 79200.00000 0 8051261.689 -18803047.708 15238361.303 10 0 60917 80100.00000 0 9088983.419 -20180042.161 12666524.302 10 0 60917 81000.00000 0 9820334.675 -21367274.097 9848429.326 10 0 60917 81900.00000 0 10262804.593 -22307316.494 6838727.125 10 0 60917 82800.00000 0 10445360.525 -22949534.218 3695883.236 10 0 60917 83700.00000 0 10406985.804 -23252285.443 481041.104 10 0 60917 84600.00000 0 10194796.087 -23184767.272 -2743174.506 10 0 60917 85500.00000 0 9861814.114 -22728425.140 -5913889.650 10 0 60918 0.00000 0 9464497.942 -21877863.963 -8969223.240 10 0 60918 900.00000 0 9060128.633 -20641219.531 -11849514.590 10 0 60918 1800.00000 0 8704170.612 -19039973.641 -14498506.366 10 0 60918 2700.00000 0 8447718.142 -17108217.758 -16864463.260 10 0 60918 3600.00000 0 8335139.040 -14891396.499 -18901198.540 10 0 60918 4500.00000 0 8402017.417 -12444583.324 -20568988.495 10 0 60918 5400.00000 0 8673484.417 -9830361.477 -21835355.553 10 0 60918 6300.00000 0 9163008.879 -7116399.958 -22675704.188 10 0 60918 7200.00000 0 9871699.708 -4372827.251 -23073797.147 10 0 60918 8100.00000 0 10788149.514 -1669513.729 -23022063.091 10 0 60918 9000.00000 0 11888825.620 926622.906 -22521730.549 10 0 60918 9900.00000 0 13138991.015 3354176.327 -21582786.640 10 0 60918 10800.00000 0 14494115.225 5559567.991 -20223762.796 10 0 60918 11700.00000 0 15901714.375 7499025.653 -18471353.060 10 0 60918 12600.00000 0 17303541.663 9140143.154 -16359873.894 10 0 60918 13500.00000 0 18638035.051 10462958.755 -13930577.436 10 0 60918 14400.00000 0 19842918.458 11460509.851 -11230832.791 10 0 60918 15300.00000 0 20857846.738 12138844.040 -8313192.460 10 0 60918 16200.00000 0 21626983.398 12516489.397 -5234362.884 10 0 60918 17100.00000 0 22101403.286 12623409.267 -2054099.706 10 0 60918 18000.00000 0 22241220.267 12499488.221 1165950.441 10 0 60918 18900.00000 0 22017351.762 12192614.991 4363439.196 10 0 60918 19800.00000 0 21412847.489 11756444.481 7476514.119 10 0 60918 20700.00000 0 20423727.966 11247933.769 10445002.193 10 0 60918 21600.00000 0 19059298.761 10724755.782 13211557.365 10 0 60918 22500.00000 0 17341928.022 10242698.834 15722751.280 10 0 60918 23400.00000 0 15306296.720 9853160.333 17930087.666 10 0 60918 24300.00000 0 12998152.455 9600838.618 19790922.446 10 0 60918 25200.00000 0 10472617.573 9521718.566 21269273.495 10 0 60918 26100.00000 0 7792120.315 9641434.374 22336505.874 10 0 60918 27000.00000 0 5024032.742 9974077.515 22971880.526 10 0 60918 27900.00000 0 2238110.929 10521499.821 23162956.605 10 0 60918 28800.00000 0 -496158.965 11273141.518 22905839.874 10 0 60918 29700.00000 0 -3112201.234 12206392.829 22205272.017 10 0 60918 30600.00000 0 -5548870.441 13287475.975 21074558.136 10 0 60918 31500.00000 0 -7752747.554 14472813.083 19535332.337 10 0 60918 32400.00000 0 -9680118.056 15710825.266 17617163.977 10 0 60918 33300.00000 0 -11298550.068 16944089.968 15357009.955 10 0 60918 34200.00000 0 -12588006.388 18111768.132 12798521.428 10 0 60918 35100.00000 0 -13541443.188 19152200.684 9991216.219 10 0 60918 36000.00000 0 -14164869.186 20005565.779 6989531.233 10 0 60918 36900.00000 0 -14476861.539 20616484.643 3851772.035 10 0 60918 37800.00000 0 -14507557.745 20936464.995 638979.446 10 0 60918 38700.00000 0 -14297165.301 20926077.066 -2586264.746 10 0 60918 39600.00000 0 -13894051.836 20556767.816 -5761068.835 10 0 60918 40500.00000 0 -13352496.920 19812233.999 -8823473.694 10 0 60918 41400.00000 0 -12730201.756 18689293.294 -11713680.694 10 0 60918 42300.00000 0 -12085663.853 17198214.231 -14375239.000 10 0 60918 43200.00000 0 -11475529.921 15362489.013 -16756167.036 10 0 60918 44100.00000 0 -10952041.314 13218057.433 -18809984.303 10 0 60918 45000.00000 0 -10560682.310 10812013.910 -20496631.795 10 0 60918 45900.00000 0 -10338132.636 8200851.992 -21783261.929 10 0 60918 46800.00000 0 -10310612.158 5448320.504 -22644881.945 10 0 60918 47700.00000 0 -10492688.498 2622982.083 -23064838.116 10 0 60918 48600.00000 0 -10886598.001 -204422.765 -23035131.728 10 0 60918 49500.00000 0 -11482108.222 -2963695.071 -22556561.489 10 0 60918 50400.00000 0 -12256926.667 -5587866.171 -21638690.723 10 0 60918 51300.00000 0 -13177637.122 -8015743.640 -20299641.358 10 0 60918 52200.00000 0 -14201122.483 -10194208.857 -18565720.178 10 0 60918 53100.00000 0 -15276412.462 -12080171.602 -16470886.090 10 0 60918 54000.00000 0 -16346876.839 -13642102.109 -14056070.213 10 0 60918 54900.00000 0 -17352670.690 -14861079.144 -11368363.280 10 0 60918 55800.00000 0 -18233327.797 -15731313.185 -8460087.277 10 0 60918 56700.00000 0 -18930392.738 -16260126.015 -5387770.264 10 0 60918 57600.00000 0 -19389981.009 -16467390.696 -2211044.877 10 0 60918 58500.00000 0 -19565160.043 -16384458.333 1008507.742 10 0 60918 59400.00000 0 -19418051.922 -16052619.115 4208546.176 10 0 60918 60300.00000 0 -18921570.568 -15521164.151 7327166.451 10 0 60918 61200.00000 0 -18060721.661 -14845130.654 10304086.716 10 0 60918 62100.00000 0 -16833411.812 -14082825.658 13081797.006 10 0 60918 63000.00000 0 -15250733.844 -13293231.982 15606653.200 10 0 60918 63900.00000 0 -13336716.493 -12533404.542 17829895.546 10 0 60918 64800.00000 0 -11127548.664 -11855964.993 19708573.777 10 0 60918 65700.00000 0 -8670309.565 -11306798.340 21206362.617 10 0 60918 66600.00000 0 -6021255.993 -10923046.651 22294253.426 10 0 60918 67500.00000 0 -3243735.791 -10731482.802 22951109.857 10 0 60918 68400.00000 0 -405811.507 -10747331.701 23164077.595 10 0 60918 69300.00000 0 2422309.881 -10973588.338 22928840.467 10 0 60918 70200.00000 0 5170937.349 -11400861.867 22249717.676 10 0 60918 71100.00000 0 7773538.507 -12007753.617 21139599.296 10 0 60918 72000.00000 0 10169256.885 -12761755.065 19619719.766 10 0 60918 72900.00000 0 12305200.707 -13620630.381 17719271.854 10 0 60918 73800.00000 0 14138408.652 -14534227.844 15474866.318 10 0 60918 74700.00000 0 15637410.657 -15446646.200 12929845.481 10 0 60918 75600.00000 0 16783317.974 -16298666.493 10133461.882 10 0 60918 76500.00000 0 17570395.780 -17030347.976 7139936.144 10 0 60918 77400.00000 0 18006092.957 -17583678.781 4007411.112 10 0 60918 78300.00000 0 18110526.487 -17905168.750 796821.962 10 0 60918 79200.00000 0 17915441.046 -17948273.310 -2429295.678 10 0 60918 80100.00000 0 17462687.081 -17675543.693 -5608035.600 10 0 60918 81000.00000 0 16802281.586 -17060409.891 -8677363.600 10 0 60918 81900.00000 0 15990134.200 -16088518.042 -11577346.764 10 0 60918 82800.00000 0 15085536.051 -14758563.020 -14251343.401 10 0 60918 83700.00000 0 14148519.342 -13082578.589 -16647128.333 10 0 60918 84600.00000 0 13237201.415 -11085671.055 -18717929.667 10 0 60918 85500.00000 0 12405227.724 -8805206.438 -20423355.123 10 0 60919 0.00000 0 11699423.750 -6289485.063 -21730188.641 10 0 60919 900.00000 0 11157756.183 -3595957.945 -22613041.649 10 0 60919 1800.00000 0 10807691.260 -789063.722 -23054844.549 10 0 60919 2700.00000 0 10665018.456 2062226.949 -23047171.504 10 0 60919 3600.00000 0 10733189.650 4887052.712 -22590391.193 10 0 60919 4500.00000 0 11003200.103 7615378.828 -21693642.496 10 0 60919 5400.00000 0 11454014.707 10180676.557 -20374636.783 10 0 60919 6300.00000 0 12053519.660 12522453.088 -18659292.131 10 0 60919 7200.00000 0 12759957.386 14588527.267 -16581208.086 10 0 60919 8100.00000 0 13523782.270 16336957.683 -14180992.608 10 0 60919 9000.00000 0 14289857.299 17737544.685 -11505455.572 10 0 60919 9900.00000 0 14999897.677 18772846.125 -8606685.680 10 0 60919 10800.00000 0 15595057.591 19438667.246 -5541029.580 10 0 60919 11700.00000 0 16018550.802 19744007.222 -2367993.676 10 0 60919 12600.00000 0 16218194.806 19710467.499 850909.713 10 0 60919 13500.00000 0 16148772.078 19371149.344 4053349.434 10 0 60919 14400.00000 0 15774109.916 18769088.972 7177373.209 10 0 60919 15300.00000 0 15068792.521 17955297.365 10162593.376 10 0 60919 16200.00000 0 14019434.438 16986487.803 12951338.817 10 0 60919 17100.00000 0 12625462.730 15922586.470 15489752.081 10 0 60919 18000.00000 0 10899375.513 14824129.910 17728812.035 10 0 60919 18900.00000 0 8866465.909 13749657.270 19625263.968 10 0 60919 19800.00000 0 6564022.086 12753205.051 21142440.843 10 0 60919 20700.00000 0 4040035.296 11882007.654 22250961.344 10 0 60919 21600.00000 0 1351467.603 11174498.438 22929292.494 10 0 60919 22500.00000 0 -1437851.312 10658693.707 23164166.755 10 0 60919 23400.00000 0 -4259613.736 10351026.613 22950845.854 10 0 60919 24300.00000 0 -7043613.720 10255679.696 22293225.903 10 0 60919 25200.00000 0 -9720412.807 10364444.661 21203780.859 10 0 60919 26100.00000 0 -12223983.393 10657116.533 19703343.946 10 0 60919 27000.00000 0 -14494221.708 11102407.412 17820729.356 10 0 60919 27900.00000 0 -16479226.969 11659343.490 15592199.322 10 0 60919 28800.00000 0 -18137252.028 12279088.641 13060784.644 10 0 60919 29700.00000 0 -19438243.693 12907119.591 10275469.673 10 0 60919 30600.00000 0 -20364907.279 13485662.232 7290255.724 10 0 60919 31500.00000 0 -20913249.357 13956286.766 4163119.861 10 0 60919 32400.00000 0 -21092574.346 14262551.721 954888.605 10 0 60919 33300.00000 0 -20924933.653 14352583.849 -2271951.520 10 0 60919 34200.00000 0 -20444049.478 14181482.794 -5454482.633 10 0 60919 35100.00000 0 -19693758.174 13713446.251 -8530598.149 10 0 60919 36000.00000 0 -18726038.995 12923522.803 -11440233.389 10 0 60919 36900.00000 0 -17598712.339 11798915.380 -14126558.115 10 0 60919 37800.00000 0 -16372906.143 10339777.564 -16537105.595 10 0 60919 38700.00000 0 -15110399.249 8559466.831 -18624814.257 10 0 60919 39600.00000 0 -13870955.977 6484242.417 -20348959.911 10 0 60919 40500.00000 0 -12709766.298 4152419.525 -21675959.182 10 0 60919 41400.00000 0 -11675101.186 1613015.069 -22580027.802 10 0 60919 42300.00000 0 -10806283.076 -1076057.967 -23043680.749 10 0 60919 43200.00000 0 -10132057.282 -3850171.319 -23058064.863 10 0 60919 44100.00000 0 -9669432.651 -6640445.340 -22623118.230 10 0 60919 45000.00000 0 -9423039.158 -9376392.213 -21747554.357 10 0 60919 45900.00000 0 -9385027.842 -11988627.597 -20448672.787 10 0 60919 46800.00000 0 -9535515.157 -14411537.381 -18752001.326 10 0 60919 47700.00000 0 -9843550.639 -16585788.642 -16690778.322 10 0 60919 48600.00000 0 -10268564.766 -18460581.006 -14305286.524 10 0 60919 49500.00000 0 -10762233.727 -19995546.006 -11642052.758 10 0 60919 50400.00000 0 -11270680.635 -21162217.168 -8752930.152 10 0 60919 51300.00000 0 -11736918.970 -21945011.898 -5694081.623 10 0 60919 52200.00000 0 -12103434.351 -22341686.818 -2524885.014 10 0 60919 53100.00000 0 -12314795.484 -22363250.258 693218.491 10 0 60919 54000.00000 0 -12320184.463 -22033338.181 3897910.317 10 0 60919 54900.00000 0 -12075740.464 -21387081.912 7027192.183 10 0 60919 55800.00000 0 -11546619.078 -20469516.824 10020572.919 10 0 60919 56700.00000 0 -10708681.664 -19333599.704 12820222.526 10 0 60919 57600.00000 0 -9549744.668 -18037918.207 15372072.435 10 0 60919 58500.00000 0 -8070337.059 -16644187.935 17626842.232 10 0 60919 59400.00000 0 -6283934.229 -15214640.950 19540974.675 10 0 60919 60300.00000 0 -4216658.059 -13809413.470 21077462.653 10 0 60919 61200.00000 0 -1906454.417 -12484040.265 22206553.579 10 0 60919 62100.00000 0 598219.469 -11287158.665 22906318.932 10 0 60919 63000.00000 0 3240145.657 -10258516.510 23163078.730 10 0 60919 63900.00000 0 5955464.168 -9427366.046 22971673.045 10 0 60919 64800.00000 0 8676074.764 -8811310.235 22335575.035 10 0 60919 65700.00000 0 11332225.078 -8415649.668 21266842.385 10 0 60919 66600.00000 0 13855180.218 -8233258.050 19785906.654 10 0 60919 67500.00000 0 16179865.062 -8244992.666 17921202.710 10 0 60919 68400.00000 0 18247370.731 -8420624.173 15708643.200 10 0 60919 69300.00000 0 20007221.410 -8720248.450 13190945.998 10 0 60919 70200.00000 0 21419306.753 -9096122.759 10416825.476 10 0 60919 71100.00000 0 22455398.186 -9494850.186 7440061.466 10 0 60919 72000.00000 0 23100184.152 -9859820.886 4318462.685 10 0 60919 72900.00000 0 23351779.117 -10133807.013 1112744.069 10 0 60919 73800.00000 0 23221683.215 -10261600.725 -2114660.140 10 0 60919 74700.00000 0 22734192.670 -10192582.009 -5300823.744 10 0 60919 75600.00000 0 21925284.832 -9883105.312 -8383571.155 10 0 60919 76500.00000 0 20841024.417 -9298601.187 -11302709.242 10 0 60919 77400.00000 0 19535558.500 -8415301.056 -14001222.338 10 0 60919 78300.00000 0 18068785.805 -7221509.279 -16426405.027 10 0 60919 79200.00000 0 16503800.110 -5718366.199 -18530908.631 10 0 60919 80100.00000 0 14904217.405 -3920067.951 -20273679.286 10 0 60919 81000.00000 0 13331501.317 -1853532.346 -21620768.081 10 0 60919 81900.00000 0 11842401.131 442475.849 -22545996.766 10 0 60919 82800.00000 0 10486611.506 2918723.610 -23031465.839 10 0 60919 83700.00000 0 9304752.898 5517334.134 -23067895.458 10 0 60919 84600.00000 0 8326757.507 8173980.011 -22654793.314 10 0 60919 85500.00000 0 7570727.668 10820352.497 -21800447.295 10 0 60920 0.00000 0 7042313.117 13386802.746 -20521744.568 10 0 60920 900.00000 0 6734630.845 15805045.592 -18843821.321 10 0 60920 1800.00000 0 6628729.028 18010809.520 -16799553.266 10 0 60920 2700.00000 0 6694571.797 19946327.241 -14428896.013 10 0 60920 3600.00000 0 6892501.463 21562560.467 -11778091.020 10 0 60920 4500.00000 0 7175113.856 22821068.882 -8898753.168 10 0 60920 5400.00000 0 7489465.796 23695447.015 -5846858.651 10 0 60920 6300.00000 0 7779520.181 24172271.272 -2681653.505 10 0 60920 7200.00000 0 7988724.762 24251520.014 535495.628 10 0 60920 8100.00000 0 8062615.605 23946451.580 3742286.236 10 0 60920 9000.00000 0 7951335.813 23282947.561 6876677.461 10 0 60920 9900.00000 0 7611964.062 22298350.653 9878077.924 10 0 60920 10800.00000 0 7010555.871 21039846.962 12688501.807 10 0 60920 11700.00000 0 6123812.687 19562460.995 15253672.201 10 0 60920 12600.00000 0 4940309.449 17926747.090 17524051.855 10 0 60920 13500.00000 0 3461229.504 16196272.972 19455783.100 10 0 60920 14400.00000 0 1700575.880 14434999.192 21011520.477 10 0 60920 15300.00000 0 -315150.786 12704662.093 22161141.478 10 0 60920 16200.00000 0 -2547795.763 11062267.602 22882322.986 10 0 60920 17100.00000 0 -4948882.291 9557798.431 23160973.090 10 0 60920 18000.00000 0 -7461379.405 8232228.717 22991510.275 10 0 60920 18900.00000 0 -10021835.043 7115927.737 22376984.320 10 0 60920 19800.00000 0 -12562788.834 6227518.673 21329035.703 10 0 60920 20700.00000 0 -15015367.132 5573240.168 19867692.870 10 0 60920 21600.00000 0 -17311954.793 5146837.975 18021009.415 10 0 60920 22500.00000 0 -19388834.261 4929992.361 15824545.991 10 0 60920 23400.00000 0 -21188682.917 4893264.775 13320704.748 10 0 60920 24300.00000 0 -22662824.560 4997525.466 10557926.993 10 0 60920 25200.00000 0 -23773140.225 5195803.295 7589767.796 10 0 60920 26100.00000 0 -24493556.878 5435480.584 4473864.164 10 0 60920 27000.00000 0 -24811049.749 5660740.582 1270816.105 10 0 60920 27900.00000 0 -24726114.147 5815163.559 -1956997.702 10 0 60920 28800.00000 0 -24252684.966 5844360.364 -5146645.875 10 0 60920 29700.00000 0 -23417505.735 5698529.952 -8235886.806 10 0 60920 30600.00000 0 -22258972.774 5334830.014 -11164401.683 10 0 60920 31500.00000 0 -20825502.905 4719457.475 -13874991.954 10 0 60920 32400.00000 0 -19173493.948 3829347.887 -16314715.755 10 0 60920 33300.00000 0 -17364964.979 2653419.135 -18435939.177 10 0 60920 34200.00000 0 -15464977.296 1193304.615 -20197280.122 10 0 60920 35100.00000 0 -13538946.371 -536456.750 -21564425.109 10 0 60920 36000.00000 0 -11649959.501 -2508782.778 -22510802.365 10 0 60920 36900.00000 0 -9856213.319 -4684947.742 -23018097.858 10 0 60920 37800.00000 0 -8208679.588 -7015981.635 -23076604.541 10 0 60920 38700.00000 0 -6749097.383 -9444509.741 -22685398.747 10 0 60920 39600.00000 0 -5508375.322 -11906954.659 -21852341.400 10 0 60920 40500.00000 0 -4505469.447 -14336007.747 -20593905.358 10 0 60920 41400.00000 0 -3746781.734 -16663265.979 -18934833.721 10 0 60920 42300.00000 0 -3226101.922 -18821923.524 -16907637.253 10 0 60920 43200.00000 0 -2925092.117 -20749405.632 -14551942.161 10 0 60920 44100.00000 0 -2814290.793 -22389835.270 -11913702.209 10 0 60920 45000.00000 0 -2854591.073 -23696230.441 -9044291.687 10 0 60920 45900.00000 0 -2999128.505 -24632341.849 -5999497.754 10 0 60920 46800.00000 0 -3195496.773 -25174055.972 -2838432.400 10 0 60920 47700.00000 0 -3388196.548 -25310306.969 377614.461 10 0 60920 48600.00000 0 -3521213.470 -25043461.513 3586358.475 10 0 60920 49500.00000 0 -3540616.459 -24389162.542 6725718.272 10 0 60920 50400.00000 0 -3397067.229 -23375640.258 9735004.264 10 0 60920 51300.00000 0 -3048136.082 -22042520.541 12556076.784 10 0 60920 52200.00000 0 -2460327.477 -20439181.301 15134452.484 10 0 60920 53100.00000 0 -1610731.129 -18622725.526 17420339.080 10 0 60920 54000.00000 0 -488229.956 -16655655.021 19369580.136 10 0 60920 54900.00000 0 905785.589 -14603340.657 20944493.313 10 0 60920 55800.00000 0 2557227.143 -12531392.881 22114587.427 10 0 60920 56700.00000 0 4439651.116 -10503040.031 22857145.744 10 0 60920 57600.00000 0 6515121.966 -8576621.510 23157665.139 10 0 60920 58500.00000 0 8735562.488 -6803298.255 23010142.947 10 0 60920 59400.00000 0 11044537.753 -5225074.220 22417205.744 10 0 60920 60300.00000 0 13379401.504 -3873210.179 21390076.729 10 0 60920 61200.00000 0 15673718.643 -2767095.498 19948380.910 10 0 60920 62100.00000 0 17859865.609 -1913625.088 18119790.040 10 0 60920 63000.00000 0 19871702.414 -1307108.255 15939511.944 10 0 60920 63900.00000 0 21647206.158 -929714.344 13449631.919 10 0 60920 64800.00000 0 23130956.514 -752437.776 10698316.760 10 0 60920 65700.00000 0 24276368.786 -736543.134 7738894.968 10 0 60920 66600.00000 0 25047579.760 -835430.431 4628829.665 10 0 60920 67500.00000 0 25420905.387 -996842.291 1428603.408 10 0 60920 68400.00000 0 25385806.910 -1165319.608 -1799463.510 10 0 60920 69300.00000 0 24945322.494 -1284800.856 -4992437.569 10 0 60920 70200.00000 0 24115944.179 -1301253.367 -8088014.285 10 0 60920 71100.00000 0 22926943.774 -1165222.861 -11025752.307 10 0 60920 72000.00000 0 21419175.154 -834190.579 -13748273.216 10 0 60920 72900.00000 0 19643403.253 -274635.364 -16202401.532 10 0 60920 73800.00000 0 17658230.585 536289.347 -18340220.701 10 0 60920 74700.00000 0 15527709.682 1609536.960 -20120022.713 10 0 60920 75600.00000 0 13318743.300 2943461.012 -21507131.555 10 0 60920 76500.00000 0 11098383.184 4523651.455 -22474583.683 10 0 60920 77400.00000 0 8931142.252 6323321.522 -23003651.979 10 0 60920 78300.00000 0 6876433.951 8304228.960 -23084203.294 10 0 60920 79200.00000 0 4986246.518 10418092.531 -22714883.335 10 0 60920 80100.00000 0 3303149.312 12608443.553 -21903126.385 10 0 60920 81000.00000 0 1858713.618 14812833.935 -20664991.013 10 0 60920 81900.00000 0 672412.204 16965307.312 -19024826.441 10 0 60920 82800.00000 0 -248958.692 18999029.106 -17014777.557 10 0 60920 83700.00000 0 -911313.693 20848965.063 -14674139.691 10 0 60920 84600.00000 0 -1332770.652 22454496.270 -12048577.002 10 0 60920 85500.00000 0 -1542625.597 23761861.739 -9189220.864 99